When you browse on this site, cookies collect data to enhance your experience and personalize the content and advertising you see.
Visit our Privacy Policy to learn more. By continuing to use the site, you agree to this use of cookies and data.
EN

Hourly Weather Gaborone

Today, 25 September, Friday

Time Temperature Precipitation Wind Pressure Humidity
00:00 +21°C° 0 mm 2 mps 676 mmHg 39%
01:00 +20°C° 0 mm 2 mps 676 mmHg 41%
02:00 +19°C° 0 mm 2 mps 675 mmHg 44%
03:00 +18°C° 0 mm 2 mps 675 mmHg 46%
04:00 +19°C° 0 mm 1 mps 675 mmHg 49%
05:00 +18°C° 0 mm 1 mps 675 mmHg 51%
06:00 +19°C° 0 mm 2 mps 676 mmHg 46%
07:00 +21°C° 0 mm 2 mps 677 mmHg 41%
08:00 +24°C° 0 mm 3 mps 677 mmHg 36%
09:00 +27°C° 0 mm 3 mps 678 mmHg 30%
10:00 +32°C° 0 mm 4 mps 678 mmHg 24%
11:00 +35°C° 0 mm 5 mps 678 mmHg 18%
12:00 +37°C° 0 mm 5 mps 677 mmHg 16%
13:00 +39°C° 0 mm 6 mps 676 mmHg 14%
14:00 +41°C° 0 mm 6 mps 675 mmHg 12%
15:00 +40°C° 0 mm 5 mps 675 mmHg 12%
16:00 +40°C° 0 mm 5 mps 674 mmHg 11%
17:00 +39°C° 0 mm 5 mps 674 mmHg 11%
18:00 +36°C° 0 mm 3 mps 674 mmHg 13%
19:00 +32°C° 0 mm 2 mps 673 mmHg 15%
20:00 +30°C° 0 mm 1 mps 673 mmHg 17%
21:00 +29°C° 0 mm 1 mps 673 mmHg 18%
22:00 +28°C° 0 mm 1 mps 673 mmHg 20%
23:00 +27°C° 0 mm 1 mps 673 mmHg 21%

Tomorrow, 26 September, Saturday

Time Temperature Precipitation Wind Pressure Humidity
00:00 +26°C° 0 mm 1 mps 672 mmHg 22%
01:00 +25°C° 0 mm 1 mps 672 mmHg 23%
02:00 +23°C° 0 mm 1 mps 671 mmHg 24%
03:00 +23°C° 0 mm 1 mps 671 mmHg 25%
04:00 +22°C° 0 mm 1 mps 672 mmHg 26%
05:00 +22°C° 0 mm 1 mps 672 mmHg 27%
06:00 +23°C° 0 mm 2 mps 673 mmHg 23%
07:00 +24°C° 0 mm 3 mps 673 mmHg 20%
08:00 +25°C° 0 mm 4 mps 674 mmHg 16%
09:00 +28°C° 0 mm 4 mps 674 mmHg 13%
10:00 +32°C° 0 mm 5 mps 675 mmHg 10%
11:00 +34°C° 0 mm 5 mps 675 mmHg 8%
12:00 +35°C° 0 mm 5 mps 675 mmHg 7%
13:00 +35°C° 0 mm 6 mps 674 mmHg 6%
14:00 +36°C° 0 mm 6 mps 674 mmHg 6%
15:00 +35°C° 0 mm 6 mps 673 mmHg 5%
16:00 +35°C° 0 mm 5 mps 673 mmHg 5%
17:00 +34°C° 0 mm 5 mps 673 mmHg 5%
18:00 +30°C° 0 mm 5 mps 673 mmHg 7%
19:00 +27°C° 0 mm 4 mps 673 mmHg 9%
20:00 +22°C° 0 mm 4 mps 673 mmHg 11%
21:00 +21°C° 0 mm 4 mps 673 mmHg 12%
22:00 +20°C° 0 mm 4 mps 673 mmHg 13%
23:00 +18°C° 0 mm 4 mps 674 mmHg 14%

Day after tomorrow, 27 September, Sunday

Time Temperature Precipitation Wind Pressure Humidity
00:00 +17°C° 0 mm 4 mps 673 mmHg 15%
01:00 +16°C° 0 mm 3 mps 673 mmHg 16%
02:00 +14°C° 0 mm 3 mps 673 mmHg 17%
03:00 +13°C° 0 mm 3 mps 672 mmHg 18%
04:00 +12°C° 0 mm 3 mps 672 mmHg 18%
05:00 +11°C° 0 mm 3 mps 672 mmHg 19%
06:00 +14°C° 0 mm 3 mps 673 mmHg 16%
07:00 +17°C° 0 mm 3 mps 674 mmHg 14%
08:00 +19°C° 0 mm 3 mps 674 mmHg 12%
09:00 +24°C° 0 mm 3 mps 675 mmHg 9%
10:00 +27°C° 0 mm 2 mps 675 mmHg 7%
11:00 +31°C° 0 mm 2 mps 676 mmHg 4%
12:00 +33°C° 0 mm 3 mps 675 mmHg 4%
13:00 +35°C° 0 mm 4 mps 675 mmHg 4%
14:00 +36°C° 0 mm 5 mps 674 mmHg 4%
15:00 +35°C° 0 mm 5 mps 674 mmHg 4%
16:00 +34°C° 0 mm 6 mps 674 mmHg 3%
17:00 +34°C° 0 mm 6 mps 673 mmHg 3%
18:00 +29°C° 0 mm 5 mps 673 mmHg 5%
19:00 +26°C° 0 mm 5 mps 674 mmHg 6%
20:00 +22°C° 0 mm 5 mps 674 mmHg 8%
21:00 +21°C° 0 mm 5 mps 674 mmHg 9%
22:00 +20°C° 0 mm 5 mps 675 mmHg 10%
23:00 +19°C° 0 mm 5 mps 675 mmHg 11%

28 September, Monday

Time Temperature Precipitation Wind Pressure Humidity
00:00 +17°C° 0 mm 5 mps 675 mmHg 13%
01:00 +17°C° 0 mm 4 mps 675 mmHg 14%
02:00 +15°C° 0 mm 4 mps 675 mmHg 15%
03:00 +13°C° 0 mm 3 mps 675 mmHg 16%
04:00 +13°C° 0 mm 2 mps 675 mmHg 17%
05:00 +12°C° 0 mm 1 mps 675 mmHg 18%
06:00 +14°C° 0 mm 2 mps 676 mmHg 16%
07:00 +17°C° 0 mm 3 mps 677 mmHg 13%
08:00 +19°C° 0 mm 4 mps 678 mmHg 11%
09:00 +22°C° 0 mm 3 mps 679 mmHg 9%
10:00 +25°C° 0 mm 3 mps 679 mmHg 7%
11:00 +28°C° 0 mm 3 mps 679 mmHg 5%
12:00 +30°C° 0 mm 2 mps 679 mmHg 5%
13:00 +31°C° 0 mm 2 mps 678 mmHg 4%
14:00 +33°C° 0 mm 1 mps 678 mmHg 3%
15:00 +33°C° 0 mm 1 mps 677 mmHg 3%
16:00 +32°C° 0 mm 1 mps 677 mmHg 3%
17:00 +32°C° 0 mm 1 mps 676 mmHg 4%
18:00 +28°C° 0 mm 1 mps 676 mmHg 5%
19:00 +25°C° 0 mm 1 mps 676 mmHg 6%
20:00 +22°C° 0 mm 1 mps 676 mmHg 6%
21:00 +20°C° 0 mm 2 mps 676 mmHg 6%
22:00 +19°C° 0 mm 2 mps 676 mmHg 6%
23:00 +17°C° 0 mm 3 mps 676 mmHg 6%

29 September, Tuesday

Time Temperature Precipitation Wind Pressure Humidity
00:00 +16°C° 0 mm 3 mps 676 mmHg 6%
01:00 +16°C° 0 mm 2 mps 676 mmHg 6%
02:00 +15°C° 0 mm 2 mps 676 mmHg 6%
03:00 +14°C° 0 mm 2 mps 676 mmHg 7%
04:00 +13°C° 0 mm 1 mps 676 mmHg 7%
05:00 +11°C° 0 mm 0 mps 675 mmHg 8%
06:00 +15°C° 0 mm 1 mps 676 mmHg 10%
07:00 +19°C° 0 mm 1 mps 677 mmHg 13%
08:00 +21°C° 0 mm 1 mps 678 mmHg 16%
09:00 +24°C° 0 mm 2 mps 678 mmHg 22%
10:00 +27°C° 0 mm 3 mps 678 mmHg 28%
11:00 +30°C° 0 mm 4 mps 679 mmHg 35%
12:00 +32°C° 0 mm 4 mps 678 mmHg 30%
13:00 +34°C° 0 mm 3 mps 677 mmHg 26%
14:00 +35°C° 0 mm 3 mps 677 mmHg 22%
15:00 +34°C° 0 mm 3 mps 676 mmHg 23%
16:00 +34°C° 0 mm 4 mps 675 mmHg 25%
17:00 +33°C° 0 mm 4 mps 675 mmHg 26%
18:00 +29°C° 0.1 mm 4 mps 675 mmHg 37%
19:00 +26°C° 0.1 mm 3 mps 674 mmHg 49%
20:00 +22°C° 0.1 mm 3 mps 674 mmHg 60%
21:00 +21°C° 0.2 mm 2 mps 674 mmHg 66%
22:00 +21°C° 0.2 mm 1 mps 675 mmHg 72%
23:00 +18°C° 0.2 mm 0 mps 675 mmHg 78%

30 September, Wednesday

Time Temperature Precipitation Wind Pressure Humidity
00:00 +19°C° 0 mm 1 mps 675 mmHg 79%
01:00 +18°C° 0 mm 2 mps 674 mmHg 80%
02:00 +18°C° 0 mm 3 mps 674 mmHg 81%
03:00 +17°C° 0 mm 3 mps 674 mmHg 85%
04:00 +16°C° 0 mm 3 mps 674 mmHg 88%
05:00 +16°C° 0 mm 3 mps 673 mmHg 92%
06:00 +17°C° 0 mm 3 mps 674 mmHg 88%
07:00 +18°C° 0 mm 4 mps 674 mmHg 83%
08:00 +19°C° 0 mm 4 mps 675 mmHg 79%
09:00 +21°C° 0 mm 4 mps 675 mmHg 69%
10:00 +23°C° 0 mm 4 mps 674 mmHg 60%
11:00 +26°C° 0 mm 4 mps 674 mmHg 50%
12:00 +29°C° 0 mm 4 mps 674 mmHg 41%
13:00 +33°C° 0 mm 4 mps 673 mmHg 31%
14:00 +36°C° 0 mm 4 mps 672 mmHg 21%
15:00 +36°C° 0 mm 4 mps 672 mmHg 20%
16:00 +36°C° 0 mm 5 mps 671 mmHg 18%
17:00 +36°C° 0 mm 5 mps 671 mmHg 16%
18:00 +33°C° 0 mm 4 mps 670 mmHg 28%
19:00 +28°C° 0 mm 4 mps 670 mmHg 39%
20:00 +25°C° 0 mm 3 mps 669 mmHg 50%
21:00 +24°C° 0 mm 3 mps 670 mmHg 43%
22:00 +22°C° 0 mm 4 mps 671 mmHg 37%
23:00 +21°C° 0 mm 4 mps 671 mmHg 31%
Show more